sat.trackr.live / text

‹ back to catalog

KUIPER-00008

NORAD 63724 · 2025-088A

PAYLOAD ACTIVE UNKNOWN

§ Identity

Operator
Country
US
Launch date
2025-04-28
Launch site
AFETR
Launch vehicle
Mass (kg)
RCS (m²)

External: N2YO · Heavens-Above · Gunter

§ Orbital elements

Epoch: 2026-09-20T19:54:48.591648Z

Period
97.30 min
Inclination
51.9016°
Eccentricity
0.0000385
Mean motion
14.79926795 rev/d
Perigee alt
629.3 km
Apogee alt
629.8 km
Semi-major
7,007.7 km
B*
-3.0330e-6
RAAN
305.1001°
Arg perigee
74.4283°
Mean anomaly
285.6721°
Rev number
7,694

§ Raw data

KUIPER-000081 63724U 25088A   26263.82972907 -.00000244  00000+0 -30330-5 0  99932 63724  51.9016 305.1001 0000385  74.4283 285.6721 14.79926795 76946

JSON: /api/v1/satellites/63724 · /tle

For live sub-satellite position, see the globe view (requires WebGL).

§ Visibility from observer

Set your observer location to see the next 7 days of passes ≥ 10°. The values pass through the URL so the page stays shareable.

No JS? Fill the form by hand. The geolocation button needs JavaScript.